TimeCDT,TemperatureF,Dew PointF,Humidity,Sea Level PressureIn,VisibilityMPH,Wind Direction,Wind SpeedMPH,Gust SpeedMPH,PrecipitationIn,Events,Conditions,WindDirDegrees,DateUTC
12:15 AM,50.4,43.9,78,30.19,10.0,North,3.5,-,N/A,,Clear,360,2014-03-09 06:15:00
12:35 AM,49.6,43.9,81,30.19,10.0,North,3.5,-,N/A,,Scattered Clouds,350,2014-03-09 06:35:00
12:55 AM,48.4,43.5,83,30.19,10.0,North,3.5,-,N/A,,Overcast,10,2014-03-09 06:55:00
1:15 AM,48.2,43.2,83,30.19,10.0,Calm,Calm,-,N/A,,Mostly Cloudy,0,2014-03-09 07:15:00
1:35 AM,47.7,42.8,83,30.19,10.0,North,3.5,-,N/A,,Scattered Clouds,360,2014-03-09 07:35:00
1:55 AM,47.5,42.3,82,30.19,10.0,North,3.5,-,N/A,,Scattered Clouds,350,2014-03-09 07:55:00
3:15 AM,46.9,41.7,82,30.19,10.0,North,3.5,-,N/A,,Scattered Clouds,350,2014-03-09 08:15:00
3:35 AM,46.4,41.0,81,30.19,10.0,North,3.5,-,N/A,,Scattered Clouds,360,2014-03-09 08:35:00
3:55 AM,46.0,40.6,81,30.19,10.0,North,3.5,-,N/A,,Mostly Cloudy,360,2014-03-09 08:55:00
4:15 AM,45.5,40.3,82,30.19,10.0,North,3.5,-,N/A,,Mostly Cloudy,350,2014-03-09 09:15:00
4:35 AM,45.5,40.6,83,30.18,10.0,NNE,4.6,-,N/A,,Overcast,20,2014-03-09 09:35:00
4:55 AM,45.1,40.6,84,30.19,10.0,North,4.6,-,N/A,,Overcast,10,2014-03-09 09:55:00
5:15 AM,45.5,40.6,83,30.19,10.0,North,5.8,-,N/A,,Overcast,10,2014-03-09 10:15:00
5:35 AM,45.1,40.6,84,30.19,10.0,NNE,4.6,-,N/A,,Overcast,20,2014-03-09 10:35:00
5:55 AM,44.2,40.3,86,30.21,10.0,NNE,4.6,-,N/A,,Mostly Cloudy,20,2014-03-09 10:55:00
6:15 AM,44.6,40.5,85,30.21,10.0,North,6.9,-,N/A,,Overcast,10,2014-03-09 11:15:00
6:35 AM,44.2,40.5,87,30.22,10.0,North,5.8,-,N/A,,Scattered Clouds,10,2014-03-09 11:35:00
6:55 AM,44.2,40.5,87,30.23,7.0,NNE,4.6,-,N/A,,Mostly Cloudy,30,2014-03-09 11:55:00
7:15 AM,44.6,40.5,85,30.23,7.0,NNE,3.5,-,N/A,,Overcast,30,2014-03-09 12:15:00
7:35 AM,44.6,40.6,86,30.25,7.0,North,3.5,-,N/A,,Overcast,360,2014-03-09 12:35:00
7:55 AM,44.8,40.5,85,30.26,7.0,Calm,Calm,-,N/A,,Overcast,0,2014-03-09 12:55:00
8:15 AM,45.0,40.3,84,30.27,5.0,Calm,Calm,-,N/A,,Haze,0,2014-03-09 13:15:00
8:35 AM,45.7,40.6,83,30.27,5.0,North,3.5,-,N/A,,Haze,360,2014-03-09 13:35:00
8:55 AM,46.0,40.5,81,30.27,5.0,North,4.6,-,N/A,,Haze,360,2014-03-09 13:55:00
9:15 AM,46.6,40.5,79,30.27,5.0,NNE,4.6,-,N/A,,Haze,20,2014-03-09 14:15:00
9:35 AM,46.9,40.3,78,30.27,5.0,NE,5.8,-,N/A,,Haze,40,2014-03-09 14:35:00
9:55 AM,48.0,40.6,76,30.26,5.0,NNE,4.6,-,N/A,,Haze,20,2014-03-09 14:55:00
10:15 AM,49.6,41.0,72,30.27,5.0,North,8.1,-,N/A,,Haze,360,2014-03-09 15:15:00
10:35 AM,49.3,40.6,72,30.26,7.0,NNE,6.9,-,N/A,,Overcast,30,2014-03-09 15:35:00
10:55 AM,50.9,41.0,69,30.26,7.0,NNE,4.6,-,N/A,,Scattered Clouds,20,2014-03-09 15:55:00
11:15 AM,52.2,41.4,67,30.26,7.0,Calm,Calm,-,N/A,,Clear,0,2014-03-09 16:15:00
11:35 AM,53.6,41.7,64,30.26,7.0,North,5.8,-,N/A,,Clear,10,2014-03-09 16:35:00
11:55 AM,54.9,41.9,62,30.26,7.0,North,3.5,-,N/A,,Clear,10,2014-03-09 16:55:00
12:15 PM,55.6,41.5,59,30.26,7.0,NNE,6.9,-,N/A,,Scattered Clouds,20,2014-03-09 17:15:00
12:35 PM,56.7,41.9,58,30.25,7.0,NE,4.6,-,N/A,,Overcast,50,2014-03-09 17:35:00
12:55 PM,58.1,42.1,55,30.23,7.0,North,3.5,-,N/A,,Overcast,10,2014-03-09 17:55:00
1:15 PM,58.6,41.9,54,30.23,10.0,Calm,Calm,-,N/A,,Mostly Cloudy,0,2014-03-09 18:15:00
1:35 PM,59.9,41.7,51,30.22,10.0,Calm,Calm,-,N/A,,Overcast,0,2014-03-09 18:35:00
1:55 PM,60.4,42.4,51,30.21,10.0,Calm,Calm,-,N/A,,Overcast,0,2014-03-09 18:55:00
2:15 PM,60.8,42.6,51,30.20,10.0,West,4.6,-,N/A,,Overcast,280,2014-03-09 19:15:00
2:35 PM,60.8,42.1,50,30.19,10.0,North,5.8,-,N/A,,Overcast,10,2014-03-09 19:35:00
2:55 PM,61.5,42.8,50,30.19,10.0,Calm,Calm,-,N/A,,Scattered Clouds,0,2014-03-09 19:55:00
3:15 PM,61.5,42.3,49,30.18,10.0,Calm,Calm,-,N/A,,Scattered Clouds,0,2014-03-09 20:15:00
3:35 PM,62.8,43.0,48,30.17,10.0,West,4.6,-,N/A,,Scattered Clouds,280,2014-03-09 20:35:00
3:55 PM,63.1,43.2,48,30.16,10.0,NW,3.5,-,N/A,,Clear,320,2014-03-09 20:55:00
4:15 PM,63.1,43.7,49,30.16,10.0,West,4.6,-,N/A,,Scattered Clouds,260,2014-03-09 21:15:00
4:35 PM,62.1,43.9,51,30.17,10.0,WNW,6.9,-,N/A,,Mostly Cloudy,300,2014-03-09 21:35:00
4:55 PM,61.0,43.7,53,30.17,10.0,NW,3.5,-,N/A,,Overcast,320,2014-03-09 21:55:00
5:15 PM,60.8,43.3,53,30.17,10.0,West,4.6,-,N/A,,Overcast,280,2014-03-09 22:15:00
5:35 PM,60.8,43.0,52,30.16,10.0,NW,4.6,-,N/A,,Overcast,310,2014-03-09 22:35:00
5:55 PM,60.1,42.8,53,30.17,10.0,NW,3.5,-,N/A,,Overcast,310,2014-03-09 22:55:00
6:15 PM,59.5,43.0,54,30.17,10.0,North,4.6,-,N/A,,Overcast,360,2014-03-09 23:15:00
6:35 PM,58.1,42.4,56,30.16,10.0,NNW,4.6,-,N/A,,Mostly Cloudy,330,2014-03-09 23:35:00
6:55 PM,56.8,42.4,59,30.16,10.0,Calm,Calm,-,N/A,,Mostly Cloudy,0,2014-03-09 23:55:00
7:15 PM,55.8,42.6,61,30.16,10.0,Calm,Calm,-,N/A,,Overcast,0,2014-03-10 00:15:00
7:35 PM,55.8,42.8,62,30.16,10.0,Calm,Calm,-,N/A,,Overcast,0,2014-03-10 00:35:00
7:55 PM,55.4,43.0,63,30.16,10.0,Calm,Calm,-,N/A,,Overcast,0,2014-03-10 00:55:00
8:15 PM,55.4,43.7,65,30.16,10.0,Calm,Calm,-,N/A,,Overcast,0,2014-03-10 01:15:00
8:35 PM,54.5,43.5,66,30.16,10.0,Calm,Calm,-,N/A,,Overcast,0,2014-03-10 01:35:00
8:55 PM,54.3,43.3,66,30.16,10.0,Calm,Calm,-,N/A,,Overcast,0,2014-03-10 01:55:00
9:15 PM,53.8,43.5,68,30.16,10.0,Calm,Calm,-,N/A,,Overcast,0,2014-03-10 02:15:00
9:35 PM,53.6,43.2,68,30.16,10.0,Calm,Calm,-,N/A,,Overcast,0,2014-03-10 02:35:00
9:55 PM,52.7,43.2,70,30.16,10.0,Calm,Calm,-,N/A,,Mostly Cloudy,0,2014-03-10 02:55:00
10:15 PM,50.0,42.8,76,30.16,10.0,Calm,Calm,-,N/A,,Scattered Clouds,0,2014-03-10 03:15:00
10:35 PM,46.9,41.9,83,30.17,7.0,Calm,Calm,-,N/A,,Clear,0,2014-03-10 03:35:00
10:55 PM,47.5,43.0,84,30.17,10.0,Calm,Calm,-,N/A,,Mostly Cloudy,0,2014-03-10 03:55:00
11:15 PM,49.8,43.5,79,30.17,10.0,Calm,Calm,-,N/A,,Overcast,0,2014-03-10 04:15:00
11:35 PM,50.9,43.3,75,30.17,10.0,Calm,Calm,-,N/A,,Overcast,0,2014-03-10 04:35:00
11:55 PM,51.1,43.9,76,30.16,10.0,NNE,3.5,-,N/A,,Overcast,30,2014-03-10 04:55:00
12:15 AM,49.8,43.9,80,30.16,10.0,Calm,Calm,-,N/A,,Overcast,0,2014-03-10 05:15:00
12:35 AM,49.6,44.6,83,30.15,10.0,Calm,Calm,-,N/A,,Overcast,0,2014-03-10 05:35:00
12:55 AM,50.0,43.9,79,30.15,10.0,Calm,Calm,-,N/A,,Overcast,0,2014-03-10 05:55:00